AirNav   Air Wisconsin Up To $57,000 Bonus
 
 515 users online  

KGRE Greenville Airport
Greenville, Illinois, USA

GOING TO GREENVILLE?


FAA INFORMATION EFFECTIVE 19 MAY 2022

Location

FAA Identifier: GRE
Lat/Long: 38-50-10.4000N 089-22-44.0000W
38-50.173333N 089-22.733333W
38.8362222,-89.3788889
(estimated)
Elevation: 540.8 ft. / 164.8 m (surveyed)
Variation: 02W (2020)
From city: 3 miles S of GREENVILLE, IL
Time zone: UTC -5 (UTC -6 during Standard Time)
Zip code: 62246

Airport Operations

Airport use: Open to the public
Control tower: no
ARTCC: KANSAS CITY CENTER
FSS: SAINT LOUIS FLIGHT SERVICE STATION
NOTAMs facility: STL (NOTAM-D service available)
Attendance: 0730-1700
Pattern altitude: 1340.8 ft. MSL
Wind indicator: lighted
Segmented circle: no
Lights: MIRL RY 18/36 PRESET ON MED INTST; TO INCR INTST ACTVT - CTAF.
Beacon: white-green (lighted land airport)
Operates sunset to sunrise.

Airport Communications

CTAF/UNICOM: 123.05
WX AWOS-AV: 123.05 (618-664-1939)
WX AWOS-AV at VLA (14 nm NE): 122.8 (618-283-9595)
  • APCH/DEP SVC PRVDD BY KANSAS CITY ARTCC ON FREQS 127.7/351.825 (MOUNT VERNON RCAG)

Nearby radio navigation aids

VOR radial/distance  VOR name  Freq  Var
VLAr209/18.5VANDALIA VOR/DME114.3004E
TOYr073/25.9TROY VORTAC116.0004E
ENLr334/27.0CENTRALIA VORTAC115.0004E

 
NDB name  Hdg/Dist  Freq  Var  ID
CIVIC MEMORIAL097/31.826301WCVM -.-. ...- --

Airport Services

Fuel available: 100LL JET-A
Parking: hangars and tiedowns
Airframe service: NONE
Powerplant service: NONE
Bottled oxygen: NONE
Bulk oxygen: NONE

Runway Information

Runway 18/36

Dimensions: 4002 x 75 ft. / 1220 x 23 m
Surface: asphalt, in good condition
Weight bearing capacity: 
Single wheel: 7.5
Runway edge lights: medium intensity
RUNWAY 18  RUNWAY 36
Latitude: 38-50.470900N38-49.811675N
Longitude: 089-22.587583W089-22.583670W
Elevation: 540.1 ft.531.7 ft.
Traffic pattern: leftleft
Runway heading: 181 magnetic, 179 true001 magnetic, 359 true
Markings: nonprecision, in fair conditionnonprecision, in fair condition
Visual slope indicator: pulsating/steady burning VASI on left (3.00 degrees glide path)
Runway end identifier lights: yesyes
Touchdown point: yes, no lightsyes, no lights

Runway 9/27

Dimensions: 2822 x 250 ft. / 860 x 76 m
Surface: turf, in good condition
RUNWAY 9  RUNWAY 27
Latitude: 38-50.222495N38-50.218163N
Longitude: 089-23.238852W089-22.644395W
Elevation: 537.9 ft.537.7 ft.
Traffic pattern: leftleft
Runway heading: 092 magnetic, 090 true272 magnetic, 270 true
Touchdown point: yes, no lightsyes, no lights

Airport Ownership and Management from official FAA records

Ownership: Publicly-owned
Owner: THE GREENVILLE ARPT AUTHORITY
1374 SKY LANE
GREENVILLE, IL 62246
Phone 618-664-0926
Manager: LARRY KLEINER
1374 SKY LANE
GREENVILLE, IL 62246
Phone 618-664-0926
OR 618-664-3272

Airport Operational Statistics

Aircraft based on the field: 37
Single engine airplanes: 36
Multi engine airplanes: 1
    
Aircraft operations: avg 68/day *
80% local general aviation
8% transient general aviation
8% air taxi
4% military
* for 12-month period ending 31 May 2021

Additional Remarks

INTENSIVE PARACHUTE OPS.
AWOS 3 CLICKS ON CTAF.
DOOR CODE FOR BUILDING ENTRY IS CTAF, THEN #
FOR CD CTC KANSAS CITY ARTCC AT 913-254-8508.

Instrument Procedures

NOTE: All procedures below are presented as PDF files. If you need a reader for these files, you should download the free Adobe Reader.

NOT FOR NAVIGATION. Please procure official charts for flight.
FAA instrument procedures published for use from 19 May 2022 at 0901Z to 16 June 2022 at 0900Z.

 
IAPs - Instrument Approach Procedures
RNAV (GPS) RWY 18   download (238KB)
RNAV (GPS) RWY 36   download (244KB)
VOR-A   download (182KB)
NOTE: Special Take-Off Minimums/Departure Procedures apply   download (201KB)

Other nearby airports with instrument procedures:

KVLA - Vandalia Municipal Airport (14 nm NE)
KSLO - Salem-Leckrone Airport (23 nm SE)
KENL - Centralia Municipal Airport (24 nm SE)
3LF - Litchfield Municipal Airport (24 nm NW)
KBLV - Scott Air Force Base/MidAmerica Airport (28 nm SW)
 
Loc | Ops | Rwys | IFR | FBO | Links
Com | Nav | Svcs | Stats | Notes
Area around KGRE (Greenville Airport)
 
Road maps at: MapQuest Bing Google
 
Aerial photo
WARNING: Photo may not be current or correct
Aerial photo of KGRE (Greenville Airport)
Photo courtesy of Cardinal Aviation Services Aerial Photography

Do you have a better or more recent aerial photo of Greenville Airport that you would like to share? If so, please send us your photo.

 
Sectional chart

 
Airport distance calculator
Flying to Greenville Airport? Find the distance to fly.

From to KGRE

Sunrise and sunset
Times for 21-May-2022
 Local
(UTC-5)
 Zulu
(UTC)
Morning civil twilight05:1110:11
Sunrise05:4110:41
Sunset20:0701:07
Evening civil twilight20:3701:37

Current date and time
Zulu (UTC)  21-May-2022 09:15:35
Local (UTC-5)  21-May-2022 04:15:35
 
METAR
KSLO 
22nm SE 
210855Z AUTO 28003KT 10SM SCT048 BKN080 BKN090 24/20 A2982 RMK AO2 LTG DSNT W THRU N T02360199
KENL 
23nm SE 
210855Z AUTO 20005KT 10SM CLR 23/20 A2980 RMK AO2 LTG DSNT W THRU N T02260195
K3LF 
24nm NW 
210855Z AUTO 01013G23KT 10SM VCTS OVC030 16/12 A2987 RMK AO2 LTG DSNT SW THRU N T01550123
KBLV 
28nm SW 
210856Z AUTO 34008KT 10SM -DZ BKN039 20/16 A2982 RMK AO2 DZB52 SLP097 P0000 60000 T02030157 52031
KALN 
31nm W 
210855Z AUTO 05008KT 350V080 10SM -VCTSRA BKN030 OVC036 17/13 A2983 RMK AO2 LTG DSNT ALQS T01710126
KMVN 
39nm SE 
210856Z AUTO 20005KT 10SM CLR 23/19 A2982 RMK AO2 SLP096 T02280194 53013
KCPS 
40nm SW 
210753Z AUTO 35009KT 10SM BKN047 BKN080 BKN110 21/17 A2980 RMK AO2 LTG DSNT W AND NW SLP087 T02110172
K1H2 
42nm E 
210855Z AUTO 00000KT 10SM CLR 22/19 A2983 RMK AO2 LTG DSNT W THRU N T02150188
KTAZ 
42nm N 
210855Z AUTO 01012G16KT 10SM VCTS SCT032 BKN048 OVC065 15/12 A2986 RMK AO2 LTG DSNT ALQS
KSAR 
44nm S 
210855Z AUTO 21003KT 10SM CLR 23/19 A2981 RMK AO2 LTG DSNT N AND W T02280190
TAF
KBLV 
28nm SW 
210800Z 2108/2214 33006KT 9999 BKN030 OVC050 QNH2980INS BECMG 2112/2113 34006KT 8000 -SHRA OVC030 QNH2993INS TEMPO 2114/2117 22020G25KT 8000 -TSRA OVC015CB BECMG 2117/2118 36009KT 8000 -SHRA OVC015 QNH2993INS TEMPO 2120/2123 35015G25KT 6000 -TSRA OVC010CB BECMG 2122/2123 34009KT 8000 -SHRA OVC008 QNH2996INS TEMPO 2200/2204 01015G25KT 6000 -TSRA OVC007CB BECMG 2205/2206 34009KT 9999 NSW OVC010 QNH3010INS BECMG 2209/2210 33009KT 9000 BR SCT010 OVC030 QNH3016INS TX24/2119Z TN13/2207Z
NOTAMs
Click for the latest NOTAMs
NOTAMs are issued by the DoD/FAA and will open in a separate window not controlled by AirNav.

 

 
 

FBO, Fuel Providers, and Aircraft Ground Support

  
 Business Name 
 
 Contact 
 
 Services / Description 
 
Fuel Prices
 
Comments
  
Greenville Airport 618-664-0926
[email]
Airport management, Aviation fuel, Aircraft parking (ramp or tiedown), Hangars, Hangar leasing / sales, Passenger terminal and lounge, Flight training, ...

More info about Greenville Airport
Phillips 66
100LL Jet A
AS $6.11 $5.23 
 Updated 11-May-2022
 
   write
AS=Assisted/Self Service
Update Fuel Prices
 

Would you like to see your business listed on this page?

 If your business provides an interesting product or service to pilots, flight crews, aircraft, or users of the Greenville Airport, you should consider listing it here.  To start the listing process, click on the button below
 
Add a business
 

Other Pages about Greenville Airport

Update a link
 
Copyright © AirNav, LLC. All rights reserved. Privacy Policy  Contact